Location: *
(32.8140°S, 174.6161°E)
Time: 00:18:31
(UTC+00:00)

Cosmos 1864 Rocket - Pass Details

Date: 10 December 2019
Orbit: 951 x 998 km, 82.9° (Epoch: 27 January)

Event Time Altitude Azimuth Distance (km) Brightness Sun altitude
Rises 14:38:56 0° 189° (S) 3,655 8.1 -24.4°
Reaches altitude 10° 14:41:27 10° 190° (S) 2,704 7.3 -24.1°
Maximum altitude 14:47:36 73° 273° (W) 1,005 4.4 -23.3°
Enters shadow 14:49:33 45° 344° (NNW) 1,282 4.7 -23.1°
